This is the latest recevied weather packets stored in our database for station/object K0QJ. If no packets are shown the sender has not sent any weather packets the latest 10 day(s).
| Time | Temp. | Humidity | Pressure | Rain* | Wind** | Luminosity | Snow |
|---|---|---|---|---|---|---|---|
| 1777483769 | 15.56° C | 56% | 1019.8 hPa | 0 mm | - | 668 W/m² | - |
| 1777483466 | 15° C | 60% | 1019.6 hPa | 0 mm | - | 768 W/m² | - |
| 1777483160 | 14.44° C | 58% | 1019.7 hPa | 0 mm | - | 765 W/m² | - |
| 1777482858 | 15° C | 58% | 1019.8 hPa | 0 mm | - | 193 W/m² | - |
| 1777482553 | 15° C | 59% | 1020 hPa | 0 mm | - | 652 W/m² | - |
| 1777482251 | 14.44° C | 61% | 1019.6 hPa | 0 mm | - | 897 W/m² | - |
| 1777481948 | 15° C | 61% | 1019.8 hPa | 0 mm | - | 968 W/m² | - |
| 1777481646 | 14.44° C | 60% | 1019.8 hPa | 0 mm | - | 866 W/m² | - |
| 1777481343 | 14.44° C | 59% | 1019.6 hPa | 0 mm | - | 850 W/m² | - |
| 1777481039 | 14.44° C | 62% | 1020.1 hPa | 0 mm | - | 896 W/m² | - |
| 1777480736 | 13.89° C | 62% | 1020 hPa | 0 mm | - | 849 W/m² | - |
| 1777480433 | 13.89° C | 61% | 1020 hPa | 0 mm | - | 356 W/m² | - |
| 1777480128 | 13.33° C | 65% | 1019.9 hPa | 0 mm | - | 178 W/m² | - |
| 1777479825 | 13.33° C | 64% | 1019.7 hPa | 0 mm | - | 818 W/m² | - |
| 1777479522 | 13.33° C | 64% | 1019.8 hPa | 0 mm | - | 585 W/m² | - |
| 1777479219 | 12.78° C | 65% | 1019.8 hPa | 0 mm | - | 165 W/m² | - |
| 1777478916 | 13.89° C | 65% | 1019.8 hPa | 0 mm | - | 555 W/m² | - |
| 1777478612 | 13.33° C | 66% | 1019.8 hPa | 0 mm | - | 808 W/m² | - |
| 1777478310 | 13.33° C | 66% | 1019.9 hPa | 0 mm | - | 724 W/m² | - |
| 1777478006 | 12.22° C | 67% | 1019.8 hPa | 0 mm | - | 708 W/m² | - |
| 1777477701 | 12.22° C | 68% | 1019.9 hPa | 0 mm | - | 494 W/m² | - |
| 1777477398 | 11.67° C | 68% | 1019.7 hPa | 0 mm | - | 696 W/m² | - |
| 1777477095 | 12.22° C | 71% | 1019.8 hPa | 0 mm | - | 161 W/m² | - |
| 1777476792 | 12.22° C | 69% | 1019.8 hPa | 0 mm | - | 622 W/m² | - |
| 1777476489 | 12.22° C | 70% | 1020 hPa | 0 mm | - | 540 W/m² | - |
* Rain latest hour (hover to see other rain measurements)
** Current wind speed in m/s (hover to see current wind gust speed)